Year,Month,Day,Hour,Minute,Value (Times are PST for windspeed in km/hr)
2012,01,05,00,00,8.60
2012,01,05,00,01,9.00
2012,01,05,00,02,5.30
2012,01,05,00,03,3.30
2012,01,05,00,04,8.40
2012,01,05,00,05,4.30
2012,01,05,00,06,3.40
2012,01,05,00,07,3.40
2012,01,05,00,08,6.70
2012,01,05,00,09,7.10
2012,01,05,00,10,3.30
2012,01,05,00,11,9.90
2012,01,05,00,12,7.50
2012,01,05,00,13,6.70
2012,01,05,00,14,7.60
2012,01,05,00,15,12.60
2012,01,05,00,16,4.40
2012,01,05,00,17,8.10
2012,01,05,00,18,7.20
2012,01,05,00,19,5.80
2012,01,05,00,20,6.20
2012,01,05,00,21,8.80
2012,01,05,00,22,5.50
2012,01,05,00,23,4.40
2012,01,05,00,24,5.30
2012,01,05,00,25,4.80
2012,01,05,00,26,7.20
2012,01,05,00,27,3.50
2012,01,05,00,28,3.70
2012,01,05,00,29,5.00
2012,01,05,00,30,7.90
2012,01,05,00,31,8.60
2012,01,05,00,32,6.90
2012,01,05,00,33,7.70
2012,01,05,00,34,8.00
2012,01,05,00,35,10.80
2012,01,05,00,36,11.80
2012,01,05,00,37,9.70
2012,01,05,00,38,15.30
2012,01,05,00,39,16.40
2012,01,05,00,40,14.70
2012,01,05,00,41,22.80
2012,01,05,00,42,19.20
2012,01,05,00,43,15.10
2012,01,05,00,44,16.90
2012,01,05,00,45,18.70
2012,01,05,00,46,19.90
2012,01,05,00,47,17.60
2012,01,05,00,48,18.10
2012,01,05,00,49,16.00
2012,01,05,00,50,20.00
2012,01,05,00,51,16.90
2012,01,05,00,52,13.10
2012,01,05,00,53,10.20
2012,01,05,00,54,13.10
2012,01,05,00,55,22.40
2012,01,05,00,56,17.30
2012,01,05,00,57,22.00
2012,01,05,00,58,12.10
2012,01,05,00,59,15.40
2012,01,05,01,00,8.20
2012,01,05,01,01,9.40
2012,01,05,01,02,7.60
2012,01,05,01,03,10.70
2012,01,05,01,04,10.70
2012,01,05,01,05,12.30
2012,01,05,01,06,8.50
2012,01,05,01,07,5.80
2012,01,05,01,08,6.40
2012,01,05,01,09,3.10
2012,01,05,01,10,1.40
2012,01,05,01,11,5.80
2012,01,05,01,12,7.90
2012,01,05,01,13,5.50
2012,01,05,01,14,4.90
2012,01,05,01,15,5.80
2012,01,05,01,16,7.30
2012,01,05,01,17,6.10
2012,01,05,01,18,5.80
2012,01,05,01,19,5.70
2012,01,05,01,20,5.40
2012,01,05,01,21,5.90
2012,01,05,01,22,3.40
2012,01,05,01,23,5.80
2012,01,05,01,24,7.80
2012,01,05,01,25,9.80
2012,01,05,01,26,7.70
2012,01,05,01,27,11.40
2012,01,05,01,28,10.20
2012,01,05,01,29,6.10
2012,01,05,01,30,19.20
2012,01,05,01,31,13.00
2012,01,05,01,32,9.60
2012,01,05,01,33,7.00
2012,01,05,01,34,12.10
2012,01,05,01,35,11.80
2012,01,05,01,36,11.60
2012,01,05,01,37,7.10
2012,01,05,01,38,10.80
2012,01,05,01,39,7.70
2012,01,05,01,40,11.10
2012,01,05,01,41,13.30
2012,01,05,01,42,9.40
2012,01,05,01,43,15.70
2012,01,05,01,44,16.80
2012,01,05,01,45,6.90
2012,01,05,01,46,9.90
2012,01,05,01,47,11.30
2012,01,05,01,48,8.40
2012,01,05,01,49,10.00
2012,01,05,01,50,4.50
2012,01,05,01,51,8.70
2012,01,05,01,52,15.30
2012,01,05,01,53,12.40
2012,01,05,01,54,6.40
2012,01,05,01,55,8.60
2012,01,05,01,56,3.70
2012,01,05,01,57,6.90
2012,01,05,01,58,13.20
2012,01,05,01,59,9.10
2012,01,05,02,00,11.40
2012,01,05,02,01,17.30
2012,01,05,02,02,5.40
2012,01,05,02,03,8.30
2012,01,05,02,04,13.20
2012,01,05,02,05,8.90
2012,01,05,02,06,11.60
2012,01,05,02,07,5.30
2012,01,05,02,08,3.80
2012,01,05,02,09,6.50
2012,01,05,02,10,9.90
2012,01,05,02,11,9.10
2012,01,05,02,12,10.30
2012,01,05,02,13,8.20
2012,01,05,02,14,3.80
2012,01,05,02,15,3.50
2012,01,05,02,16,6.50
2012,01,05,02,17,6.90
2012,01,05,02,18,3.10
2012,01,05,02,19,6.10
2012,01,05,02,20,8.30
2012,01,05,02,21,5.50
2012,01,05,02,22,5.70
2012,01,05,02,23,7.00
2012,01,05,02,24,6.60
2012,01,05,02,25,4.40
2012,01,05,02,26,4.80
2012,01,05,02,27,8.50
2012,01,05,02,28,12.80
2012,01,05,02,29,4.80
2012,01,05,02,30,6.70
2012,01,05,02,31,4.50
2012,01,05,02,32,3.90
2012,01,05,02,33,4.90
2012,01,05,02,34,8.90
2012,01,05,02,35,4.80
2012,01,05,02,36,4.70
2012,01,05,02,37,4.20
2012,01,05,02,38,7.70
2012,01,05,02,39,10.20
2012,01,05,02,40,11.00
2012,01,05,02,41,4.90
2012,01,05,02,42,6.80
2012,01,05,02,43,4.70
2012,01,05,02,44,8.30
2012,01,05,02,45,5.80
2012,01,05,02,46,5.00
2012,01,05,02,47,7.50
2012,01,05,02,48,6.50
2012,01,05,02,49,7.40
2012,01,05,02,50,7.20
2012,01,05,02,51,5.10
2012,01,05,02,52,5.60
2012,01,05,02,53,8.30
2012,01,05,02,54,9.10
2012,01,05,02,55,11.20
2012,01,05,02,56,10.50
2012,01,05,02,57,11.10
2012,01,05,02,58,10.50
2012,01,05,02,59,12.70
2012,01,05,03,00,12.60
2012,01,05,03,01,12.60
2012,01,05,03,02,12.10
2012,01,05,03,03,8.00
2012,01,05,03,04,11.00
2012,01,05,03,05,12.30
2012,01,05,03,06,11.60
2012,01,05,03,07,13.70
2012,01,05,03,08,22.20
2012,01,05,03,09,25.60
2012,01,05,03,10,23.00
2012,01,05,03,11,16.80
2012,01,05,03,12,23.50
2012,01,05,03,13,29.40
2012,01,05,03,14,22.10
2012,01,05,03,15,20.80
2012,01,05,03,16,18.20
2012,01,05,03,17,20.00
2012,01,05,03,18,20.20
2012,01,05,03,19,21.20
2012,01,05,03,20,15.40
2012,01,05,03,21,17.00
2012,01,05,03,22,10.70
2012,01,05,03,23,9.70
2012,01,05,03,24,9.20
2012,01,05,03,25,11.00
2012,01,05,03,26,10.50
2012,01,05,03,27,17.00
2012,01,05,03,28,13.20
2012,01,05,03,29,15.20
2012,01,05,03,30,11.00
2012,01,05,03,31,5.60
2012,01,05,03,32,11.60
2012,01,05,03,33,10.30
2012,01,05,03,34,8.30
2012,01,05,03,35,12.60
2012,01,05,03,36,12.70
2012,01,05,03,37,12.20
2012,01,05,03,38,8.10
2012,01,05,03,39,3.30
2012,01,05,03,40,6.90
2012,01,05,03,41,7.50
2012,01,05,03,42,4.20
2012,01,05,03,43,8.10
2012,01,05,03,44,9.90
2012,01,05,03,45,4.70
2012,01,05,03,46,7.10
2012,01,05,03,47,7.50
2012,01,05,03,48,13.70
2012,01,05,03,49,17.40
2012,01,05,03,50,12.80
2012,01,05,03,51,14.40
2012,01,05,03,52,12.20
2012,01,05,03,53,23.10
2012,01,05,03,54,21.70
2012,01,05,03,55,17.10
2012,01,05,03,56,20.90
2012,01,05,03,57,21.00
2012,01,05,03,58,17.80
2012,01,05,03,59,10.90
2012,01,05,04,00,6.50
2012,01,05,04,01,9.50
2012,01,05,04,02,10.60
2012,01,05,04,03,15.00
2012,01,05,04,04,12.00
2012,01,05,04,05,7.60
2012,01,05,04,06,18.30
2012,01,05,04,07,12.90
2012,01,05,04,08,14.30
2012,01,05,04,09,10.90
2012,01,05,04,10,9.40
2012,01,05,04,11,7.50
2012,01,05,04,12,17.60
2012,01,05,04,13,9.30
2012,01,05,04,14,9.80
2012,01,05,04,15,6.10
2012,01,05,04,16,6.40
2012,01,05,04,17,6.10
2012,01,05,04,18,12.30
2012,01,05,04,19,9.90
2012,01,05,04,20,6.40
2012,01,05,04,21,4.30
2012,01,05,04,22,6.50
2012,01,05,04,23,7.10
2012,01,05,04,24,5.90
2012,01,05,04,25,4.70
2012,01,05,04,26,9.80
2012,01,05,04,27,5.50
2012,01,05,04,28,5.30
2012,01,05,04,29,5.70
2012,01,05,04,30,3.40
2012,01,05,04,31,1.30
2012,01,05,04,32,4.40
2012,01,05,04,33,5.00
2012,01,05,04,34,5.80
2012,01,05,04,35,8.40
2012,01,05,04,36,5.70
2012,01,05,04,37,4.50
2012,01,05,04,38,2.40
2012,01,05,04,39,1.60
2012,01,05,04,40,5.60
2012,01,05,04,41,5.30
2012,01,05,04,42,4.80
2012,01,05,04,43,2.80
2012,01,05,04,44,2.30
2012,01,05,04,45,4.10
2012,01,05,04,46,6.80
2012,01,05,04,47,9.40
2012,01,05,04,48,7.60
2012,01,05,04,49,5.30
2012,01,05,04,50,9.40
2012,01,05,04,51,6.50
2012,01,05,04,52,1.30
2012,01,05,04,53,8.40
2012,01,05,04,54,8.30
2012,01,05,04,55,12.90
2012,01,05,04,56,8.70
2012,01,05,04,57,10.20
2012,01,05,04,58,9.10
2012,01,05,04,59,9.40
2012,01,05,05,00,8.80
2012,01,05,05,01,10.00
2012,01,05,05,02,14.50
2012,01,05,05,03,14.00
2012,01,05,05,04,7.70
2012,01,05,05,05,5.20
2012,01,05,05,06,12.00
2012,01,05,05,07,13.50
2012,01,05,05,08,10.80
2012,01,05,05,09,10.80
2012,01,05,05,10,8.60
2012,01,05,05,11,10.20
2012,01,05,05,12,13.20
2012,01,05,05,13,14.20
2012,01,05,05,14,15.70
2012,01,05,05,15,9.80
2012,01,05,05,16,12.20
2012,01,05,05,17,10.50
2012,01,05,05,18,14.70
2012,01,05,05,19,14.60
2012,01,05,05,20,11.20
2012,01,05,05,21,9.20
2012,01,05,05,22,8.00
2012,01,05,05,23,5.60
2012,01,05,05,24,9.00
2012,01,05,05,25,12.30
2012,01,05,05,26,13.60
2012,01,05,05,27,12.80
2012,01,05,05,28,17.70
2012,01,05,05,29,11.80
2012,01,05,05,30,8.40
2012,01,05,05,31,11.30
2012,01,05,05,32,12.50
2012,01,05,05,33,13.30
2012,01,05,05,34,5.40
2012,01,05,05,35,6.20
2012,01,05,05,36,6.70
2012,01,05,05,37,12.00
2012,01,05,05,38,11.90
2012,01,05,05,39,14.30
2012,01,05,05,40,12.20
2012,01,05,05,41,12.10
2012,01,05,05,42,17.10
2012,01,05,05,43,17.80
2012,01,05,05,44,16.20
2012,01,05,05,45,11.50
2012,01,05,05,46,14.50
2012,01,05,05,47,11.10
2012,01,05,05,48,15.80
2012,01,05,05,49,13.80
2012,01,05,05,50,12.30
2012,01,05,05,51,16.40
2012,01,05,05,52,9.90
2012,01,05,05,53,12.60
2012,01,05,05,54,15.40
2012,01,05,05,55,14.80
2012,01,05,05,56,10.20
2012,01,05,05,57,15.40
2012,01,05,05,58,18.10
2012,01,05,05,59,16.50
2012,01,05,06,00,16.30
2012,01,05,06,01,17.60
2012,01,05,06,02,19.30
2012,01,05,06,03,14.90
2012,01,05,06,04,13.90
2012,01,05,06,05,13.60
2012,01,05,06,06,14.20
2012,01,05,06,07,11.00
2012,01,05,06,08,13.10
2012,01,05,06,09,17.30
2012,01,05,06,10,25.80
2012,01,05,06,11,30.10
2012,01,05,06,12,28.90
2012,01,05,06,13,24.70
2012,01,05,06,14,15.70
2012,01,05,06,15,22.30
2012,01,05,06,16,27.20
2012,01,05,06,17,18.00
2012,01,05,06,18,19.20
2012,01,05,06,19,17.20
2012,01,05,06,20,22.30
2012,01,05,06,21,21.70
2012,01,05,06,22,18.70
2012,01,05,06,23,20.10
2012,01,05,06,24,8.20
2012,01,05,06,25,19.30
2012,01,05,06,26,15.20
2012,01,05,06,27,13.40
2012,01,05,06,28,11.90
2012,01,05,06,29,15.80
2012,01,05,06,30,17.00
2012,01,05,06,31,16.60
2012,01,05,06,32,16.00
2012,01,05,06,33,14.60
2012,01,05,06,34,8.60
2012,01,05,06,35,10.80
2012,01,05,06,36,14.30
2012,01,05,06,37,16.20
2012,01,05,06,38,14.80
2012,01,05,06,39,14.50
2012,01,05,06,40,13.20
2012,01,05,06,41,16.20
2012,01,05,06,42,13.80
2012,01,05,06,43,13.00
2012,01,05,06,44,11.10
2012,01,05,06,45,10.20
2012,01,05,06,46,15.10
2012,01,05,06,47,15.90
2012,01,05,06,48,16.70
2012,01,05,06,49,10.70
2012,01,05,06,50,13.50
2012,01,05,06,51,16.20
2012,01,05,06,52,14.80
2012,01,05,06,53,20.20
2012,01,05,06,54,21.30
2012,01,05,06,55,20.60
2012,01,05,06,56,16.00
2012,01,05,06,57,18.90
2012,01,05,06,58,14.00
2012,01,05,06,59,7.20
2012,01,05,07,00,9.40
2012,01,05,07,01,11.40
2012,01,05,07,02,9.60
2012,01,05,07,03,12.40
2012,01,05,07,04,12.50
2012,01,05,07,05,14.20
2012,01,05,07,06,16.00
2012,01,05,07,07,9.80
2012,01,05,07,08,10.60
2012,01,05,07,09,16.10
2012,01,05,07,10,10.20
2012,01,05,07,11,7.00
2012,01,05,07,12,10.20
2012,01,05,07,13,11.70
2012,01,05,07,14,12.10
2012,01,05,07,15,6.50
2012,01,05,07,16,11.10
2012,01,05,07,17,12.10
2012,01,05,07,18,8.70
2012,01,05,07,19,10.50
2012,01,05,07,20,8.90
2012,01,05,07,21,16.20
2012,01,05,07,22,7.70
2012,01,05,07,23,6.10
2012,01,05,07,24,6.70
2012,01,05,07,25,6.40
2012,01,05,07,26,9.10
2012,01,05,07,27,3.90
2012,01,05,07,28,6.80
2012,01,05,07,29,13.40
2012,01,05,07,30,5.50
2012,01,05,07,31,7.80
2012,01,05,07,32,13.80
2012,01,05,07,33,5.90
2012,01,05,07,34,7.70
2012,01,05,07,35,10.00
2012,01,05,07,36,13.70
2012,01,05,07,37,19.50
2012,01,05,07,38,8.40
2012,01,05,07,39,9.80
2012,01,05,07,40,7.20
2012,01,05,07,41,8.00
2012,01,05,07,42,6.90
2012,01,05,07,43,17.00
2012,01,05,07,44,8.40
2012,01,05,07,45,14.10
2012,01,05,07,46,7.90
2012,01,05,07,47,7.70
2012,01,05,07,48,12.70
2012,01,05,07,49,12.20
2012,01,05,07,50,8.60
2012,01,05,07,51,5.30
2012,01,05,07,52,5.00
2012,01,05,07,53,4.70
2012,01,05,07,54,8.30
2012,01,05,07,55,5.90
2012,01,05,07,56,9.90
2012,01,05,07,57,7.20
2012,01,05,07,58,9.30
2012,01,05,07,59,11.70
2012,01,05,08,00,7.20
2012,01,05,08,01,19.50
2012,01,05,08,02,13.10
2012,01,05,08,03,12.50
2012,01,05,08,04,9.90
2012,01,05,08,05,8.00
2012,01,05,08,06,7.70
2012,01,05,08,07,8.50
2012,01,05,08,08,10.60
2012,01,05,08,09,11.80
2012,01,05,08,10,5.40
2012,01,05,08,11,9.40
2012,01,05,08,12,11.90
2012,01,05,08,13,8.60
2012,01,05,08,14,4.10
2012,01,05,08,15,7.20
2012,01,05,08,16,9.10
2012,01,05,08,17,7.60
2012,01,05,08,18,6.50
2012,01,05,08,19,6.50
2012,01,05,08,20,4.90
2012,01,05,08,21,10.40
2012,01,05,08,22,5.50
2012,01,05,08,23,5.00
2012,01,05,08,24,2.70
2012,01,05,08,25,6.10
2012,01,05,08,26,10.30
2012,01,05,08,27,7.00
2012,01,05,08,28,7.70
2012,01,05,08,29,8.50
2012,01,05,08,30,9.90
2012,01,05,08,31,12.00
2012,01,05,08,32,10.00
2012,01,05,08,33,7.80
2012,01,05,08,34,8.00
2012,01,05,08,35,6.90
2012,01,05,08,36,7.40
2012,01,05,08,37,5.00
2012,01,05,08,38,7.60
2012,01,05,08,39,5.70
2012,01,05,08,40,6.20
2012,01,05,08,41,7.20
2012,01,05,08,42,7.60
2012,01,05,08,43,12.10
2012,01,05,08,44,10.20
2012,01,05,08,45,8.40
2012,01,05,08,46,8.10
2012,01,05,08,47,4.30
2012,01,05,08,48,7.40
2012,01,05,08,49,6.40
2012,01,05,08,50,6.00
2012,01,05,08,51,5.70
2012,01,05,08,52,5.20
2012,01,05,08,53,3.20
2012,01,05,08,54,4.30
2012,01,05,08,55,2.60
2012,01,05,08,56,1.20
2012,01,05,08,57,6.80
2012,01,05,08,58,5.00
2012,01,05,08,59,6.40
2012,01,05,09,00,8.10
2012,01,05,09,01,9.90
2012,01,05,09,02,7.80
2012,01,05,09,03,4.30
2012,01,05,09,04,5.50
2012,01,05,09,05,4.60
2012,01,05,09,06,3.60
2012,01,05,09,07,2.00
2012,01,05,09,08,3.90
2012,01,05,09,09,2.80
2012,01,05,09,10,3.10
2012,01,05,09,11,4.40
2012,01,05,09,12,4.30
2012,01,05,09,13,2.80
2012,01,05,09,14,3.50
2012,01,05,09,15,0.80
2012,01,05,09,16,0.50
2012,01,05,09,17,1.00
2012,01,05,09,18,1.50
2012,01,05,09,19,0.10
2012,01,05,09,20,0.00
2012,01,05,09,21,1.70
2012,01,05,09,22,0.70
2012,01,05,09,23,6.40
2012,01,05,09,24,4.20
2012,01,05,09,25,4.60
2012,01,05,09,26,3.70
2012,01,05,09,27,6.60
2012,01,05,09,28,5.40
2012,01,05,09,29,4.70
2012,01,05,09,30,7.40
2012,01,05,09,31,6.80
2012,01,05,09,32,6.40
2012,01,05,09,33,9.40
2012,01,05,09,34,8.50
2012,01,05,09,35,9.60
2012,01,05,09,36,6.10
2012,01,05,09,37,5.50
2012,01,05,09,38,8.90
2012,01,05,09,39,7.50
2012,01,05,09,40,11.10
2012,01,05,09,41,8.60
2012,01,05,09,42,9.00
2012,01,05,09,43,6.50
2012,01,05,09,44,5.00
2012,01,05,09,45,9.70
2012,01,05,09,46,10.40
2012,01,05,09,47,7.30
2012,01,05,09,48,8.00
2012,01,05,09,49,8.50
2012,01,05,09,50,5.40
2012,01,05,09,51,6.10
2012,01,05,09,52,7.60
2012,01,05,09,53,6.10
2012,01,05,09,54,6.80
2012,01,05,09,55,7.90
2012,01,05,09,56,6.00
2012,01,05,09,57,4.10
2012,01,05,09,58,4.40
2012,01,05,09,59,4.80
2012,01,05,10,00,5.60
2012,01,05,10,01,6.60
2012,01,05,10,02,6.70
2012,01,05,10,03,7.50
2012,01,05,10,04,6.40
2012,01,05,10,05,4.50
2012,01,05,10,06,6.40
2012,01,05,10,07,7.10
2012,01,05,10,08,10.70
2012,01,05,10,09,10.50
2012,01,05,10,10,12.10
2012,01,05,10,11,11.90
2012,01,05,10,12,8.40
2012,01,05,10,13,9.90
2012,01,05,10,14,7.20
2012,01,05,10,15,10.00
2012,01,05,10,16,9.90
2012,01,05,10,17,8.30
2012,01,05,10,18,7.50
2012,01,05,10,19,9.80
2012,01,05,10,20,11.30
2012,01,05,10,21,9.80
2012,01,05,10,22,9.80
2012,01,05,10,23,9.00
2012,01,05,10,24,5.30
2012,01,05,10,25,8.30
2012,01,05,10,26,6.50
2012,01,05,10,27,6.80
2012,01,05,10,28,6.60
2012,01,05,10,29,7.90
2012,01,05,10,30,8.30
2012,01,05,10,31,6.20
2012,01,05,10,32,6.90
2012,01,05,10,33,8.70
2012,01,05,10,34,10.40
2012,01,05,10,35,10.10
2012,01,05,10,36,7.50
2012,01,05,10,37,4.20
2012,01,05,10,38,7.60
2012,01,05,10,39,7.80
2012,01,05,10,40,6.40
2012,01,05,10,41,9.40
2012,01,05,10,42,7.10
2012,01,05,10,43,6.70
2012,01,05,10,44,6.10
2012,01,05,10,45,10.00
2012,01,05,10,46,8.10
2012,01,05,10,47,8.60
2012,01,05,10,48,12.20
2012,01,05,10,49,14.90
2012,01,05,10,50,11.60
2012,01,05,10,51,12.40
2012,01,05,10,52,12.90
2012,01,05,10,53,13.30
2012,01,05,10,54,12.50
2012,01,05,10,55,9.90
2012,01,05,10,56,10.00
2012,01,05,10,57,8.10
2012,01,05,10,58,8.20
2012,01,05,10,59,8.50
2012,01,05,11,00,9.60
2012,01,05,11,01,10.20
2012,01,05,11,02,7.30
2012,01,05,11,03,15.30
2012,01,05,11,04,8.00
2012,01,05,11,05,5.90
2012,01,05,11,06,7.10
2012,01,05,11,07,12.00
2012,01,05,11,08,10.00
2012,01,05,11,09,12.90
2012,01,05,11,10,10.20
2012,01,05,11,11,10.70
2012,01,05,11,12,16.90
2012,01,05,11,13,15.10
2012,01,05,11,14,13.90
2012,01,05,11,15,15.90
2012,01,05,11,16,16.00
2012,01,05,11,17,6.50
2012,01,05,11,18,12.00
2012,01,05,11,19,11.80
2012,01,05,11,20,10.30
2012,01,05,11,21,14.50
2012,01,05,11,22,15.70
2012,01,05,11,23,12.30
2012,01,05,11,24,10.10
2012,01,05,11,25,13.20
2012,01,05,11,26,11.20
2012,01,05,11,27,7.70
2012,01,05,11,28,12.60
2012,01,05,11,29,10.20
2012,01,05,11,30,8.90
2012,01,05,11,31,8.10
2012,01,05,11,32,5.70
2012,01,05,11,33,7.60
2012,01,05,11,34,9.20
2012,01,05,11,35,3.90
2012,01,05,11,36,5.50
2012,01,05,11,37,5.50
2012,01,05,11,38,6.40
2012,01,05,11,39,10.30
2012,01,05,11,40,5.70
2012,01,05,11,41,9.40
2012,01,05,11,42,10.00
2012,01,05,11,43,11.30
2012,01,05,11,44,12.00
2012,01,05,11,45,9.80
2012,01,05,11,46,10.20
2012,01,05,11,47,13.60
2012,01,05,11,48,15.70
2012,01,05,11,49,13.70
2012,01,05,11,50,11.50
2012,01,05,11,51,13.40
2012,01,05,11,52,10.30
2012,01,05,11,53,10.60
2012,01,05,11,54,9.70
2012,01,05,11,55,8.90
2012,01,05,11,56,17.40
2012,01,05,11,57,8.40
2012,01,05,11,58,14.60
2012,01,05,11,59,7.90
2012,01,05,12,00,12.70
2012,01,05,12,01,7.60
2012,01,05,12,02,9.90
2012,01,05,12,03,9.60
2012,01,05,12,04,8.60
2012,01,05,12,05,6.00
2012,01,05,12,06,13.90
2012,01,05,12,07,11.20
2012,01,05,12,08,20.00
2012,01,05,12,09,14.60
2012,01,05,12,10,19.60
2012,01,05,12,11,8.50
2012,01,05,12,12,6.10
2012,01,05,12,13,13.60
2012,01,05,12,14,11.80
2012,01,05,12,15,11.70
2012,01,05,12,16,14.60
2012,01,05,12,17,12.10
2012,01,05,12,18,14.60
2012,01,05,12,19,10.60
2012,01,05,12,20,12.10
2012,01,05,12,21,8.40
2012,01,05,12,22,12.20
2012,01,05,12,23,8.70
2012,01,05,12,24,8.00
2012,01,05,12,25,10.20
2012,01,05,12,26,6.40
2012,01,05,12,27,9.40
2012,01,05,12,28,9.10
2012,01,05,12,29,10.20
2012,01,05,12,30,7.70
2012,01,05,12,31,10.00
2012,01,05,12,32,6.50
2012,01,05,12,33,9.40
2012,01,05,12,34,9.40
2012,01,05,12,35,6.20
2012,01,05,12,36,9.10
2012,01,05,12,37,9.60
2012,01,05,12,38,12.40
2012,01,05,12,39,12.70
2012,01,05,12,40,10.40
2012,01,05,12,41,15.10
2012,01,05,12,42,9.60
2012,01,05,12,43,7.50
2012,01,05,12,44,8.40
2012,01,05,12,45,13.20
2012,01,05,12,46,15.50
2012,01,05,12,47,22.50
2012,01,05,12,48,20.30
2012,01,05,12,49,11.50
2012,01,05,12,50,9.10
2012,01,05,12,51,9.80
2012,01,05,12,52,8.30
2012,01,05,12,53,10.80
2012,01,05,12,54,6.40
2012,01,05,12,55,7.40
2012,01,05,12,56,8.50
2012,01,05,12,57,6.60
2012,01,05,12,58,9.40
2012,01,05,12,59,6.40
2012,01,05,13,00,5.90
2012,01,05,13,01,5.60
2012,01,05,13,02,8.30
2012,01,05,13,03,11.90
2012,01,05,13,04,11.00
2012,01,05,13,05,10.40
2012,01,05,13,06,6.50
2012,01,05,13,07,7.40
2012,01,05,13,08,12.70
2012,01,05,13,09,8.00
2012,01,05,13,10,10.80
2012,01,05,13,11,11.60
2012,01,05,13,12,12.50
2012,01,05,13,13,11.00
2012,01,05,13,14,11.00
2012,01,05,13,15,10.40
2012,01,05,13,16,13.20
2012,01,05,13,17,9.00
2012,01,05,13,18,11.50
2012,01,05,13,19,5.00
2012,01,05,13,20,6.00
2012,01,05,13,21,3.60
2012,01,05,13,22,8.60
2012,01,05,13,23,10.60
2012,01,05,13,24,7.80
2012,01,05,13,25,8.10
2012,01,05,13,26,6.40
2012,01,05,13,27,8.60
2012,01,05,13,28,10.60
2012,01,05,13,29,5.90
2012,01,05,13,30,7.20
2012,01,05,13,31,5.00
2012,01,05,13,32,9.60
2012,01,05,13,33,8.30
2012,01,05,13,34,5.00
2012,01,05,13,35,7.80
2012,01,05,13,36,9.50
2012,01,05,13,37,7.30
2012,01,05,13,38,6.10
2012,01,05,13,39,6.90
2012,01,05,13,40,9.00
2012,01,05,13,41,11.80
2012,01,05,13,42,5.80
2012,01,05,13,43,8.40
2012,01,05,13,44,10.90
2012,01,05,13,45,10.60
2012,01,05,13,46,8.40
2012,01,05,13,47,8.30
2012,01,05,13,48,8.90
2012,01,05,13,49,7.20
2012,01,05,13,50,11.80
2012,01,05,13,51,11.00
2012,01,05,13,52,6.00
2012,01,05,13,53,8.50
2012,01,05,13,54,7.00
2012,01,05,13,55,9.40
2012,01,05,13,56,14.60
2012,01,05,13,57,11.30
2012,01,05,13,58,6.90
2012,01,05,13,59,3.80
2012,01,05,14,00,6.10
2012,01,05,14,01,4.90
2012,01,05,14,02,5.70
2012,01,05,14,03,5.70
2012,01,05,14,04,3.60
2012,01,05,14,05,10.40
2012,01,05,14,06,10.20
2012,01,05,14,07,9.20
2012,01,05,14,08,8.50
2012,01,05,14,09,7.50
2012,01,05,14,10,4.50
2012,01,05,14,11,2.60
2012,01,05,14,12,4.20
2012,01,05,14,13,4.30
2012,01,05,14,14,5.30
2012,01,05,14,15,5.90
2012,01,05,14,16,9.20
2012,01,05,14,17,17.40
2012,01,05,14,18,15.70
2012,01,05,14,19,8.20
2012,01,05,14,20,14.40
2012,01,05,14,21,11.00
2012,01,05,14,22,16.80
2012,01,05,14,23,10.40
2012,01,05,14,24,12.70
2012,01,05,14,25,15.90
2012,01,05,14,26,12.50
2012,01,05,14,27,16.50
2012,01,05,14,28,18.60
2012,01,05,14,29,22.20
2012,01,05,14,30,11.00
2012,01,05,14,31,20.90
2012,01,05,14,32,18.20
2012,01,05,14,33,12.90
2012,01,05,14,34,17.90
2012,01,05,14,35,19.30
2012,01,05,14,36,11.80
2012,01,05,14,37,12.30
2012,01,05,14,38,13.40
2012,01,05,14,39,10.00
2012,01,05,14,40,17.50
2012,01,05,14,41,10.70
2012,01,05,14,42,9.60
2012,01,05,14,43,14.60
2012,01,05,14,44,13.00
2012,01,05,14,45,10.20
2012,01,05,14,46,12.10
2012,01,05,14,47,12.30
2012,01,05,14,48,12.10
2012,01,05,14,49,8.10
2012,01,05,14,50,7.80
2012,01,05,14,51,5.30
2012,01,05,14,52,7.70
2012,01,05,14,53,14.40
2012,01,05,14,54,15.80
2012,01,05,14,55,12.10
2012,01,05,14,56,6.50
2012,01,05,14,57,8.30
2012,01,05,14,58,13.10
2012,01,05,14,59,10.00
2012,01,05,15,00,17.30
2012,01,05,15,01,17.30
2012,01,05,15,02,12.70
2012,01,05,15,03,13.70
2012,01,05,15,04,15.10
2012,01,05,15,05,21.50
2012,01,05,15,06,16.40
2012,01,05,15,07,14.00
2012,01,05,15,08,7.40
2012,01,05,15,09,13.90
2012,01,05,15,10,12.70
2012,01,05,15,11,15.60
2012,01,05,15,12,15.50
2012,01,05,15,13,12.80
2012,01,05,15,14,21.80
2012,01,05,15,15,11.60
2012,01,05,15,16,8.90
2012,01,05,15,17,9.40
2012,01,05,15,18,11.50
2012,01,05,15,19,10.20
2012,01,05,15,20,14.60
2012,01,05,15,21,11.80
2012,01,05,15,22,15.90
2012,01,05,15,23,6.60
2012,01,05,15,24,11.00
2012,01,05,15,25,9.40
2012,01,05,15,26,11.20
2012,01,05,15,27,12.50
2012,01,05,15,28,11.00
2012,01,05,15,29,6.10
2012,01,05,15,30,16.00
2012,01,05,15,31,8.40
2012,01,05,15,32,9.20
2012,01,05,15,33,10.40
2012,01,05,15,34,15.10
2012,01,05,15,35,16.20
2012,01,05,15,36,12.00
2012,01,05,15,37,8.20
2012,01,05,15,38,11.30
2012,01,05,15,39,15.10
2012,01,05,15,40,17.20
2012,01,05,15,41,8.60
2012,01,05,15,42,8.20
2012,01,05,15,43,10.60
2012,01,05,15,44,13.40
2012,01,05,15,45,18.60
2012,01,05,15,46,15.90
2012,01,05,15,47,16.40
2012,01,05,15,48,16.90
2012,01,05,15,49,16.10
2012,01,05,15,50,13.30
2012,01,05,15,51,7.20
2012,01,05,15,52,21.70
2012,01,05,15,53,13.50
2012,01,05,15,54,15.10
2012,01,05,15,55,17.40
2012,01,05,15,56,19.20
2012,01,05,15,57,26.00
2012,01,05,15,58,18.50
2012,01,05,15,59,16.20
2012,01,05,16,00,13.10
2012,01,05,16,01,11.70
2012,01,05,16,02,14.00
2012,01,05,16,03,10.10
2012,01,05,16,04,12.00
2012,01,05,16,05,16.50
2012,01,05,16,06,15.40
2012,01,05,16,07,9.70
2012,01,05,16,08,8.60
2012,01,05,16,09,13.70
2012,01,05,16,10,11.50
2012,01,05,16,11,18.80
2012,01,05,16,12,16.50
2012,01,05,16,13,17.30
2012,01,05,16,14,11.60
2012,01,05,16,15,11.90
2012,01,05,16,16,15.80
2012,01,05,16,17,14.00
2012,01,05,16,18,14.00
2012,01,05,16,19,15.70
2012,01,05,16,20,14.00
2012,01,05,16,21,11.60
2012,01,05,16,22,11.30
2012,01,05,16,23,7.20
2012,01,05,16,24,11.00
2012,01,05,16,25,14.10
2012,01,05,16,26,10.80
2012,01,05,16,27,18.00
2012,01,05,16,28,13.50
2012,01,05,16,29,14.00
2012,01,05,16,30,16.10
2012,01,05,16,31,13.20
2012,01,05,16,32,17.10
2012,01,05,16,33,16.20
2012,01,05,16,34,18.70
2012,01,05,16,35,11.10
2012,01,05,16,36,16.20
2012,01,05,16,37,16.40
2012,01,05,16,38,8.60
2012,01,05,16,39,11.00
2012,01,05,16,40,17.70
2012,01,05,16,41,14.90
2012,01,05,16,42,12.90
2012,01,05,16,43,12.60
2012,01,05,16,44,14.20
2012,01,05,16,45,12.10
2012,01,05,16,46,13.40
2012,01,05,16,47,17.50
2012,01,05,16,48,19.70
2012,01,05,16,49,16.30
2012,01,05,16,50,14.70
2012,01,05,16,51,12.90
2012,01,05,16,52,18.60
2012,01,05,16,53,14.30
2012,01,05,16,54,15.20
2012,01,05,16,55,20.40
2012,01,05,16,56,19.80
2012,01,05,16,57,18.80
2012,01,05,16,58,14.30
2012,01,05,16,59,20.40
2012,01,05,17,00,22.20
2012,01,05,17,01,12.80
2012,01,05,17,02,14.70
2012,01,05,17,03,12.40
2012,01,05,17,04,15.90
2012,01,05,17,05,14.00
2012,01,05,17,06,15.80
2012,01,05,17,07,21.70
2012,01,05,17,08,15.00
2012,01,05,17,09,11.30
2012,01,05,17,10,14.00
2012,01,05,17,11,10.20
2012,01,05,17,12,10.70
2012,01,05,17,13,11.00
2012,01,05,17,14,12.30
2012,01,05,17,15,4.50
2012,01,05,17,16,12.90
2012,01,05,17,17,8.10
2012,01,05,17,18,5.50
2012,01,05,17,19,8.00
2012,01,05,17,20,5.30
2012,01,05,17,21,8.00
2012,01,05,17,22,6.20
2012,01,05,17,23,16.70
2012,01,05,17,24,12.20
2012,01,05,17,25,13.20
2012,01,05,17,26,7.80
2012,01,05,17,27,9.70
2012,01,05,17,28,10.50
2012,01,05,17,29,7.00
2012,01,05,17,30,11.50
2012,01,05,17,31,8.70
2012,01,05,17,32,9.10
2012,01,05,17,33,6.90
2012,01,05,17,34,11.10
2012,01,05,17,35,11.50
2012,01,05,17,36,13.30
2012,01,05,17,37,9.40
2012,01,05,17,38,10.10
2012,01,05,17,39,11.60
2012,01,05,17,40,8.60
2012,01,05,17,41,9.70
2012,01,05,17,42,8.30